7 * 24
多渠道服务支持
ONEWEB-0536是英国OneWeb公司低轨互联网卫星星座的组网卫星,于2022年10月22日发射入轨,归属英国主导的OneWeb低轨卫星互联网项目。该项目旨在通过近地轨道卫星星座,为全球偏远地区及网络基础设施薄弱区域提供低延迟、性价比高的宽带互联网接入服务,是全球低轨卫星通信星座建设的重要组成部分,补充完善了OneWeb第一代组网星座的覆盖能力。
英国
(GB)
| 数据来源 | 国际轨道数据 |
| 星历时间: | 2026-09-15T18:42:05+0800 12小时前 查看轨道信息 |
| 半长轴: | 7559.907km |
| 偏心率: | 0.0001298 |
| 轨道倾角: | 87.914° |
| 近地点辐角 | 115.469° |
| 升交点赤经 | 256.445° |
| 平近点角 | 244.657° |
| 近地点: | 1180.788km |
| 远地点: | 1182.752km |
| 周期: | 109.027分钟 |
| 每日圈数: | 13.207728 |